Location: Mount Cross
(36.6390°N, 79.4878°W)
Time: 19:02:53
(UTC+00:00)

Courier 1B Rocket - Pass Details

Date: 21 March 2023
Orbit: 920 x 1202 km, 28.2° (Epoch: 05 June)

Event Time Altitude Azimuth Distance (km) Brightness Sun altitude
Rises 02:21:45 0° 225° (SW) 3,706 8.2 -33.9°
Enters shadow 02:24:26 - 215° (SW) 2,879 7.5 -34.3°
Reaches altitude 10° 02:25:02 10° 212° (SSW) 2,713 - -34.5°
Maximum altitude 02:30:00 23° 161° (SSE) 1,874 - -35.3°
Drops below altitude 10° 02:34:50 10° 111° (ESE) 2,621 - -36.1°
Sets 02:37:55 0° 97° (E) 3,552 - -36.6°
